CW6888 Weather Reports


Display with metric or nautical units.
time (UTC)temp
F
wind
direction
speed
MPH
gust
MPH
rain 1hr
in
rain 24hr
in
rain mn
in
humidity
%
barometer
mb
20260509063828 54 179 2.0 4.0 0.00 0.00 0.00 75 1011.8
20260509062822 54 176 3.0 4.0 0.00 0.00 0.00 76 1011.8
20260509061854 54 170 3.0 4.0 0.00 0.00 0.00 78 1012.0
20260509060824 53 161 2.0 3.0 0.00 0.00 0.00 80 1012.1
20260509055831 53 160 2.0 3.0 0.00 0.00 0.00 81 1012.2
20260509054824 53 153 0.0 0.0 0.00 0.00 0.00 82 1012.4
20260509053816 52 150 0.0 0.0 0.00 0.00 0.00 83 1012.4
20260509052827 52 150 0.0 0.0 0.00 0.00 0.00 82 1012.6
20260509051839 53 150 0.0 0.0 0.00 0.00 0.00 82 1012.7
20260509050821 53 150 0.0 0.0 0.00 0.00 0.00 81 1012.7
20260509045836 53 150 0.0 0.0 0.00 0.00 0.00 81 1012.8
20260509044817 54 149 0.0 0.0 0.00 0.00 0.00 80 1012.7
20260509043859 54 149 0.0 0.0 0.00 0.00 0.00 79 1012.9
20260509042829 54 149 0.0 0.0 0.00 0.00 0.00 78 1012.9
20260509041813 55 148 0.0 0.0 0.00 0.00 0.00 75 1012.8
20260509040821 55 148 0.0 0.0 0.00 0.00 0.00 73 1012.9
20260509035835 56 148 0.0 0.0 0.00 0.00 0.00 71 1012.9
20260509034818 56 147 0.0 0.0 0.00 0.00 0.00 69 1013.0
20260509033829 57 146 0.0 0.0 0.00 0.00 0.00 67 1013.0
20260509032820 57 146 0.0 0.0 0.00 0.00 0.00 66 1013.0
20260509031831 57 146 0.0 0.0 0.00 0.00 0.00 64 1013.0
20260509030824 58 146 0.0 0.0 0.00 0.00 0.00 61 1013.1
20260509025848 58 145 0.0 0.0 0.00 0.00 0.00 60 1013.2
20260509024820 58 145 0.0 0.0 0.00 0.00 0.00 60 1013.3
20260509023831 58 145 0.0 0.0 0.00 0.00 0.00 60 1013.4
20260509022843 58 145 0.0 0.0 0.00 0.00 0.00 59 1013.4
20260509021832 58 145 0.0 1.0 0.00 0.00 0.00 59 1013.3
20260509020824 58 145 1.0 3.0 0.00 0.00 0.00 59 1013.3
20260509015829 59 73 0.0 0.0 0.00 0.00 0.00 57 1013.3
20260509014820 60 73 0.0 0.0 0.00 0.00 0.00 55 1013.2
20260509013832 60 73 0.0 0.0 0.00 0.00 0.00 54 1013.1
20260509012824 60 73 0.0 0.0 0.00 0.00 0.00 54 1013.0
20260509011816 60 73 0.0 0.0 0.00 0.00 0.00 54 1013.0
20260509010828 60 73 0.0 0.0 0.00 0.00 0.00 53 1013.0
20260509005815 60 73 0.0 0.0 0.00 0.00 0.00 54 1013.0
20260509004826 61 73 0.0 0.0 0.00 0.00 0.00 52 1013.0
20260509003834 61 73 0.0 0.0 0.00 0.00 0.00 52 1012.8
20260509002816 61 73 0.0 0.0 0.00 0.00 0.00 51 1012.7
20260509001828 62 73 0.0 0.0 0.00 0.00 0.00 49 1012.6
20260509000819 62 73 0.0 0.0 0.00 0.00 0.00 48 1012.3
20260508235825 62 73 0.0 0.0 0.00 0.00 0.00 48 1012.1
20260508234820 63 73 0.0 0.0 0.00 0.00 0.00 48 1012.2
20260508233814 63 73 0.0 0.0 0.00 0.00 0.00 46 1012.2
20260508232829 63 72 0.0 2.0 0.00 0.00 0.00 45 1012.0
20260508231823 64 141 0.0 0.0 0.00 0.00 0.00 46 1012.0
20260508230836 64 133 1.0 4.0 0.00 0.00 0.00 45 1012.0
20260508225843 64 130 1.0 4.0 0.00 0.00 0.00 46 1012.0
20260508224837 64 253 2.0 4.0 0.00 0.00 0.00 45 1011.9
20260508223830 64 135 1.0 3.0 0.00 0.00 0.00 44 1011.8
20260508222829 65 144 2.0 8.0 0.00 0.00 0.00 44 1011.7
20260508221827 65 171 1.0 5.0 0.00 0.00 0.00 42 1011.7
20260508220843 65 176 2.0 7.0 0.00 0.00 0.00 43 1011.9
20260508215829 65 129 2.0 9.0 0.00 0.00 0.00 41 1011.9
20260508214822 65 119 2.0 6.0 0.00 0.00 0.00 41 1011.7
20260508213838 66 165 2.0 8.0 0.00 0.00 0.00 42 1011.7
20260508212852 67 124 3.0 7.0 0.00 0.00 0.00 40 1011.7
20260508211826 66 57 3.0 12.0 0.00 0.00 0.00 42 1011.7
20260508210838 65 18 0.0 11.0 0.00 0.00 0.00 40 1011.7
20260508205816 65 41 2.0 7.0 0.00 0.00 0.00 42 1011.7
20260508204826 66 197 1.0 13.0 0.00 0.00 0.00 42 1011.7
20260508203820 65 227 2.0 8.0 0.00 0.00 0.00 42 1011.7
20260508202813 66 198 3.0 8.0 0.00 0.00 0.00 41 1011.7
20260508201826 66 186 3.0 8.0 0.00 0.00 0.00 44 1011.7
20260508200819 67 344 2.0 11.0 0.00 0.00 0.00 45 1011.9
20260508195823 66 219 2.0 9.0 0.00 0.00 0.00 44 1011.9
20260508194814 66 138 3.0 11.0 0.00 0.00 0.00 40 1012.2
20260508193826 66 67 3.0 10.0 0.00 0.00 0.00 44 1012.3
20260508192820 66 131 3.0 10.0 0.00 0.00 0.00 44 1012.3
20260508191831 65 308 4.0 10.0 0.00 0.00 0.00 42 1012.6
20260508190843 64 200 3.0 9.0 0.00 0.00 0.00 42 1012.7
20260508185832 64 245 3.0 9.0 0.00 0.00 0.00 43 1012.9
20260508184845 64 103 4.0 12.0 0.00 0.00 0.00 43 1012.9
20260508183818 64 94 3.0 10.0 0.00 0.00 0.00 46 1013.0
20260508182830 64 208 5.0 10.0 0.00 0.00 0.00 44 1013.2
20260508181815 64 103 2.0 10.0 0.00 0.00 0.00 46 1013.2
20260508180837 64 147 4.0 14.0 0.00 0.00 0.00 48 1013.1
20260508175843 64 82 3.0 6.0 0.00 0.00 0.00 50 1013.3
20260508174814 62 134 3.0 12.0 0.00 0.00 0.00 48 1013.5
20260508173850 61 148 4.0 13.0 0.00 0.00 0.00 47 1013.8
20260508172823 62 222 2.0 7.0 0.00 0.00 0.00 49 1013.7
20260508171832 63 35 3.0 11.0 0.00 0.00 0.00 47 1013.8
20260508170818 63 157 4.0 12.0 0.00 0.00 0.00 46 1013.8
20260508165833 62 144 4.0 10.0 0.00 0.00 0.00 48 1013.8
20260508164817 62 29 4.0 10.0 0.00 0.00 0.00 48 1013.8
20260508163858 61 169 3.0 10.0 0.00 0.00 0.00 47 1013.8
20260508162829 62 25 3.0 11.0 0.00 0.00 0.00 49 1013.9
20260508161842 61 187 4.0 16.0 0.00 0.00 0.00 49 1014.1
20260508160824 61 87 5.0 17.0 0.00 0.00 0.00 47 1014.2
20260508155838 60 205 5.0 11.0 0.00 0.00 0.00 46 1014.2
20260508154851 60 215 4.0 11.0 0.00 0.00 0.00 52 1014.4
20260508153814 60 277 7.0 15.0 0.00 0.00 0.00 48 1014.4
20260508152827 60 294 5.0 9.0 0.00 0.00 0.00 51 1014.6
20260508151848 59 184 5.0 10.0 0.00 0.00 0.00 52 1014.5
20260508150839 58 83 3.0 11.0 0.00 0.00 0.00 52 1014.7
20260508145825 58 161 3.0 12.0 0.00 0.00 0.00 51 1014.8
20260508144836 57 160 5.0 8.0 0.00 0.00 0.00 52 1014.9
20260508143819 56 225 4.0 10.0 0.00 0.00 0.00 53 1014.9
20260508142831 56 208 4.0 8.0 0.00 0.00 0.00 53 1015.1
20260508141842 55 170 3.0 10.0 0.00 0.00 0.00 54 1015.1
20260508140814 55 54 4.0 10.0 0.00 0.00 0.00 57 1015.2
20260508135817 54 178 2.0 8.0 0.00 0.00 0.00 58 1015.2
20260508134829 54 148 1.0 6.0 0.00 0.00 0.00 59 1015.3
20260508133821 54 117 2.0 4.0 0.00 0.00 0.00 59 1015.3
20260508132833 53 62 2.0 5.0 0.00 0.00 0.00 64 1015.4
20260508131825 52 46 1.0 3.0 0.00 0.00 0.00 65 1015.5
20260508130818 52 130 1.0 8.0 0.00 0.00 0.00 66 1015.4
20260508125823 51 169 0.0 5.0 0.00 0.00 0.00 66 1015.4
20260508124815 50 173 1.0 4.0 0.00 0.00 0.00 69 1015.5
20260508123848 49 192 0.0 4.0 0.00 0.00 0.00 71 1015.5
20260508122819 48 207 2.0 4.0 0.00 0.00 0.00 73 1015.5
20260508121836 47 167 2.0 3.0 0.00 0.00 0.00 77 1015.5
20260508120828 46 223 0.0 1.0 0.00 0.00 0.00 79 1015.5
20260508115832 45 175 0.0 1.0 0.00 0.00 0.00 79 1015.3
20260508114824 43 360 1.0 3.0 0.00 0.00 0.00 81 1015.3
20260508113815 42 360 0.0 0.0 0.00 0.00 0.00 83 1015.2
20260508112827 42 360 0.0 0.0 0.00 0.00 0.00 83 1015.2
20260508111819 42 65 0.0 0.0 0.00 0.00 0.00 83 1015.2
20260508110831 41 65 0.0 0.0 0.00 0.00 0.00 83 1014.9
20260508105818 40 65 0.0 0.0 0.00 0.02 0.00 83 1014.8
20260508104832 40 65 0.0 0.0 0.00 0.02 0.00 83 1014.6
20260508103815 40 65 0.0 0.0 0.00 0.02 0.00 82 1014.6
20260508102829 41 65 0.0 0.0 0.00 0.02 0.00 81 1014.5
20260508101824 41 65 0.0 0.0 0.00 0.02 0.00 80 1014.4
20260508100822 42 65 0.0 0.0 0.00 0.02 0.00 80 1014.3
20260508095845 42 65 0.0 0.0 0.00 0.02 0.00 79 1014.3
20260508094817 42 65 0.0 0.0 0.00 0.02 0.00 78 1014.2
20260508093829 43 65 0.0 0.0 0.00 0.02 0.00 77 1014.2
20260508092821 44 65 0.0 0.0 0.00 0.02 0.00 76 1014.1
20260508091833 45 65 0.0 0.0 0.00 0.02 0.00 72 1014.1
20260508090824 46 65 0.0 0.0 0.00 0.02 0.00 70 1014.0
20260508085831 47 65 0.0 0.0 0.00 0.02 0.00 69 1013.9
20260508084821 47 65 0.0 0.0 0.00 0.02 0.00 69 1014.0
20260508083854 47 65 0.0 0.0 0.00 0.02 0.00 68 1013.9
20260508082825 47 68 0.0 0.0 0.00 0.02 0.00 68 1013.9
20260508081816 47 360 0.0 0.0 0.00 0.02 0.00 68 1013.8
20260508080828 47 360 0.0 0.0 0.00 0.02 0.00 68 1013.8
20260508075824 48 360 0.0 0.0 0.00 0.03 0.00 67 1013.7
20260508074815 48 340 0.0 0.0 0.00 0.03 0.00 67 1013.5
20260508073827 48 350 0.0 2.0 0.00 0.03 0.00 66 1013.3
20260508072835 49 351 0.0 3.0 0.00 0.03 0.00 65 1013.2
20260508071827 49 360 1.0 6.0 0.00 0.03 0.00 64 1013.2
20260508070838 50 325 3.0 5.0 0.00 0.03 0.00 64 1013.0
20260508065844 50 52 5.0 10.0 0.00 0.06 0.00 63 1013.0
20260508064815 51 30 5.0 9.0 0.00 0.06 0.00 62 1013.0